Change the Weather History Date:

Sunday, November 10, 2013

  Actual Average Record
Temperature  
Mean Temperature 61 °F -  
Max Temperature 72 °F 67 °F 86 °F (2002)
Min Temperature 48 °F 47 °F 35 °F (2014)
Degree Days  
Heating Degree Days 4    
Growing Degree Days 11 (Base 50)    
Moisture  
Dew Point 45 °F    
Average Humidity 65    
Maximum Humidity 92    
Minimum Humidity 27    
Precipitation  
Precipitation 0.00 in - - ()
Sea Level Pressure  
Sea Level Pressure 30.25 in    
Wind  
Wind Speed 4 mph (North)    
Max Wind Speed 7 mph    
Max Gust Speed -    
Visibility 10 miles    
Events Rain    
Averages and records for this station are not official NWS values.
T = Trace of Precipitation, MM = Missing Value Source: NWS Daily Summary

Daily Weather History Graph

Daily Weather History Graph

Search for Another Location

Airport or City:

Trip Planner

Search our weather history database for the weather conditions in past years. The results will help you decide how hot, cold, wet, or windy it might be!

Date:

Astronomy

Nov. 10, 2013 Rise Set
Actual Time 6:10 AM CST 4:47 PM CST
Civil Twilight 5:44 AM CST 5:13 PM CST
Nautical Twilight 5:15 AM CST 5:43 PM CST
Astronomical Twilight 4:46 AM CST 6:11 PM CST
Moon 12:31 PM CST (11/10) No Moon Set
Length of Visible Light 11h 28m
Length of Day
10h 37m
First Quarter, 56% of the Moon is Illuminated
Nov 10
First Quarter
Nov 17
Full
Nov 25
Last Quarter
Dec 2
New
Dec 9
First Quarter

Hourly Weather History & Observations

Time (CST) Temp. Dew Point Humidity Pressure Visibility Wind Dir Wind Speed Gust Speed Precip Events Conditions
12:58 AM 55.6 °F 48.2 °F 76% 30.24 in 10.0 mi North 4.6 mph - N/A   Mostly Cloudy
1:58 AM 55.6 °F 47.8 °F 75% 30.24 in 10.0 mi North 4.6 mph - N/A   Mostly Cloudy
2:42 AM 55.4 °F 48.2 °F 77% 30.24 in 10.0 mi North 2.3 mph - N/A   Light Drizzle
2:58 AM 55.2 °F 47.8 °F 76% 30.25 in 10.0 mi North 2.3 mph - 0.00 in Rain Light Rain
2:59 AM 55.4 °F 48.2 °F 77% 30.24 in 10.0 mi North 2.3 mph - N/A   Overcast
3:58 AM 55.2 °F 46.6 °F 73% 30.26 in 10.0 mi NNE 4.6 mph - 0.00 in   Overcast
4:23 AM 55.4 °F 46.4 °F 72% 30.25 in 10.0 mi North 5.8 mph - N/A Rain Light Rain
4:39 AM 53.6 °F 46.4 °F 77% 30.26 in 10.0 mi NNE 3.5 mph - N/A   Mostly Cloudy
4:58 AM 53.8 °F 46.9 °F 78% 30.28 in 10.0 mi North 4.6 mph - 0.00 in   Overcast
5:58 AM 54.0 °F 46.6 °F 76% 30.29 in 10.0 mi NNE 5.8 mph - N/A   Overcast
6:58 AM 54.7 °F 46.9 °F 75% 30.29 in 10.0 mi NE 3.5 mph - N/A   Overcast
7:58 AM 55.6 °F 47.1 °F 73% 30.31 in 10.0 mi East 3.5 mph - N/A   Overcast
8:58 AM 58.8 °F 48.0 °F 67% 30.31 in 10.0 mi Variable 3.5 mph - N/A   Mostly Cloudy
9:58 AM 64.4 °F 45.7 °F 51% 30.30 in 10.0 mi Variable 2.3 mph - N/A   Clear
10:58 AM 68.0 °F 45.5 °F 44% 30.28 in 10.0 mi North 6.9 mph - N/A   Clear
11:58 AM 70.7 °F 42.4 °F 36% 30.26 in 10.0 mi North 6.9 mph - N/A   Clear
12:58 PM 71.6 °F 40.3 °F 32% 30.23 in 10.0 mi Variable 3.5 mph - N/A   Clear
1:58 PM 72.7 °F 38.5 °F 29% 30.22 in 10.0 mi Variable 1.2 mph - N/A   Clear
2:58 PM 72.9 °F 37.2 °F 27% 30.22 in 10.0 mi NNE 5.8 mph - N/A   Clear
3:58 PM 71.8 °F 39.2 °F 31% 30.22 in 10.0 mi North 5.8 mph - N/A   Clear
4:58 PM 64.9 °F 43.2 °F 45% 30.22 in 10.0 mi NW 3.5 mph - N/A   Clear
5:58 PM 61.5 °F 46.2 °F 57% 30.24 in 10.0 mi NNW 4.6 mph - N/A   Clear
6:58 PM 57.4 °F 46.6 °F 67% 30.24 in 10.0 mi Calm Calm - N/A   Clear
7:58 PM 53.8 °F 46.2 °F 76% 30.24 in 10.0 mi Calm Calm - N/A   Clear
8:58 PM 52.5 °F 46.9 °F 81% 30.25 in 10.0 mi Calm Calm - N/A   Clear
9:58 PM 50.9 °F 46.9 °F 86% 30.24 in 10.0 mi Calm Calm - N/A   Clear
10:58 PM 50.0 °F 46.8 °F 89% 30.24 in 10.0 mi Calm Calm - N/A   Clear
11:58 PM 48.7 °F 46.6 °F 92% 30.23 in 10.0 mi Calm Calm - N/A   Clear